OBJECT D, 59920

Orbit data source: Space-Track

You're viewing an Uncataloged Satellite

Recently launched and/or uncataloged satellites may have evolving metadata. Metadata may include but not limited to: Owner, Maufacturer, Bus, Motor, and Mission.

OBJECT D, 59920 is a Chinese satellite in SSO that was launched on Thu, 30 May 2024 UTC via a GUSHENXING 1 launch vehicle from the Jiuquan Satellite Launch Center, China (JSC). Unknown objects in Earth's orbit typically refer to objects detected orbiting the Earth but have not yet been identified or cataloged. These objects could be anything from previously untracked satellites, spent rocket stages, debris from satellite collisions, or even natural meteoroids temporarily captured by Earth's gravity.

Loading next visibility...
Identifier
59920, 2024-105D
Orbit
SSO
Country
Flag of CNCN / PRC
Related business
None
Manufacturer
Unknown
Mission
Operational Commercial Meteo Radio Occ.
Bus & Motor
Unknown
Mass
Unknown
Launch date (UTC)
2024-05-30 (2 years ago)
Launch vehicle
GUSHENXING 1
Launch site
Jiuquan Satellite Launch Center, China (JSC)
Object type
Unknown
Shape & HBR
Box + 1 Pan, 2.5 m
Radar Cross Section
5.339 m², Medium (>0.1 m² and < 1m²)

Expand to show TLE details & history
Last TLE update: 1 day ago

TLE from 1 day ago
0 OBJECT D
1 59920U 24105D   26172.49484521  .00004151  00000-0  18128-3 0  9996
2 59920  97.5821 191.4716 0011251 195.3996 164.6899 15.22640007113915
Epoch: 2026-06-21T11:52Z
TLE epoch observation values (Epoch: 2026-06-21T11:52:34.626Z)
Latitude
-0.00004°
Longitude
103.63303°
Altitude
508.434 km
Speed
7.606 km/s
True Right ascension
12h 45m 53s
True Declination
0° 00' 00"
Sunlit
Object was in daylight at epoch
Visualization orbit readout
Latitude
Unknown
Longitude
Unknown
Altitude
Unknown
Speed
Unknown
Apparent Right ascension
Unknown
Apparent Declination
Unknown
Sunlit
N/A
Visualization observer readout
Local Sidereal Time
00:39:29
Azimuth
Unknown
Elevation
Unknown
Doppler factor
Unknown
Orbital elements
Apogee altitude
502.584 km
Perigee altitude
487.118 km
Semi-major axis
6,872.988 km
Eccentricity
0.00113
Inclination
97.5821°
RAAN
191.4716°
Arg. of periapsis
195.3996°
True anomaly
164.7239°
Mean anomaly
164.6899°
Eccentric anomaly
164.7069°
Mean motion
3.80912 °/min
Orbital period
94.51 mins
BSTAR
0.00018128
Loading maneuver chart data...
Computing Atmospheric mass density...
Loading historical data...
Loading historical data...
Loading historical data...
Loading historical data...
Loading historical data...
Loading historical data...
Loading historical data...
Other satellites on launch #105 in the year 2024 (2024-05-30 UTC)

Documentation

Showing up to 5 results
|